Showing default

ECHOSTAR 23, 42070

Orbit data source: Space-Track

ECHOSTAR 23, 42070 is a payload satellite owned by Echostar (US) in GEO that was launched on Thu, 16 Mar 2017 UTC via an FALCON 9 launch vehicle from the Air Force Eastern Test Range (AFETR). Payload-class satellites include a variety of spacecraft equipped with specific instruments for various scientific and technological missions. These include communications satellites like Starlink; space stations such as the ISS; scientific satellites like the Hubble; Earth observation satellites from companies like Planet Labs, Umbra, and HawkEye 360; GPS; miniature CubeSats for education and research; and military/defense satellites.

Loading next visibility...
Identifier
42070, 2017-014A
Orbit
GEO
Country
Flag of USUS
Related business
Manufacturer
SS/Loral (MDA)
Mission
Operational Commercial Communications
Bus & Motor
SSL-1300, R-4D-15-300
Mass
~5,600 kg wet, 3,500 kg dry
Launch date (UTC)
2017-03-16 (9 years ago)
Launch vehicle
FALCON 9
Launch site
Air Force Eastern Test Range (AFETR)
Object type
Payload
Rocket body
Debris
Shape & HBR
Box + 2 Pan, 15.5 m
Radar Cross Section
40.765 m², Large (>1 m²)

Expand to show TLE details & history
Last TLE update: 2 days ago

TLE from 2 days ago
0 ECHOSTAR 23
1 42070U 17014A   26171.01379684 -.00000062  00000-0  00000-0 0  9990
2 42070   0.0178   9.4528 0002159  78.4628  75.3790  1.00271442 33953
Epoch: 2026-06-20T00:19Z
TLE epoch observation values (Epoch: 2026-06-20T00:19:52.046Z)
Latitude
0.01491°
Longitude
-109.87014°
Altitude
35,783.874 km
Speed
3.075 km/s
True Right ascension
10h 53m 19s
True Declination
0° 00' 54"
Sunlit
Object was in daylight at epoch
Visualization orbit readout
Latitude
Unknown
Longitude
Unknown
Altitude
Unknown
Speed
Unknown
Apparent Right ascension
Unknown
Apparent Declination
Unknown
Sunlit
N/A
Visualization observer readout
Local Sidereal Time
21:32:44
Azimuth
Unknown
Elevation
Unknown
Doppler factor
Unknown
Orbital elements
Apogee altitude
35,796.865 km
Perigee altitude
35,778.658 km
Semi-major axis
42,165.898 km
Eccentricity
0.00022
Inclination
0.0178°
RAAN
9.4528°
Arg. of periapsis
78.4628°
True anomaly
75.40294°
Mean anomaly
75.379°
Eccentric anomaly
75.39097°
Mean motion
0.25067 °/min
Orbital period
1,436.16 mins
BSTAR
0
Loading maneuver chart data...
Computing Atmospheric mass density...
Loading historical data...
Loading historical data...
Loading historical data...
Loading historical data...
Loading historical data...
Loading historical data...
Loading historical data...
Other satellites on launch #14 in the year 2017 (2017-03-16 UTC)

Documentation

Showing up to 5 results
|